Tracking 21045 objects as of 3-Aug-2020
HD Live streaming from Space Station
objects crossing your sky now

COSMOS 539

Track COSMOS 539 now!
10-day predictions
COSMOS 539 is classified as:


NORAD ID: 6319
Int'l Code: 1972-102A
Perigee: 1,348.4 km
Apogee: 1,386.0 km
Inclination: 74.0 °
Period: 112.9 minutes
Semi major axis: 7738 km
RCS: 2.7132 m2 (large)
Launch date: December 21, 1972
Source: Commonwealth of Independent States (former USSR) (CIS)
Launch site: PLESETSK MISSILE AND SPACE COMPLEX (PKMTR)
aabbcc
Your satellite tracking list
Your tracking list is empty




NASA's NSSDC Master Catalog

Two Line Element Set (TLE):
1  6319U 72102A   20215.90650459 -.00000021 +00000-0 -15945-4 0  9992
2  6319 074.0169 017.7940 0024294 234.7018 234.5904 12.75391076216784
Source of the keplerian elements: AFSPC